Regional Weather Roundup
Issued by NWS

Home | Current Version | Previous Version | Graphics & Text | Print | Product List | Glossary On
Versions: 1 2 3 4 5 6 7 8 9 10 11 12 13 14 15 16 17 18 19 20 21 22 23 24 25 26 27 28 29 30 31 32 33 34 35 36 37 38 39 40 41 42 43 44 45 46 47 48 49 50
000
ASUS45 KTFX 202219
RWRMT
MONTANA HOURLY WEATHER ROUNDUP
NATIONAL WEATHER SERVICE GREAT FALLS MT
419 PM MDT WED AUG 20 2014

NOTE: "FAIR" INDICATES FEW OR NO CLOUDS BELOW 12000 FEET WITH NO
SIGNIFICANT WEATHER AND/OR OBSTRUCTIONS TO VISIBILITY.

* THESE STATIONS ARE NOT UNDER NWS QUALITY CONTROL. THEY DO NOT
   REPORT WEATHER SUCH AS PRECIPITATION OR FOG.

MTZ001>007-043-202300-
WEST OF THE DIVIDE
CITY           SKY/WX    TMP DP  RH WIND       PRES   REMARKS
KALISPELL      CLOUDY    72  52  49 S17G22    29.85F
MISSOULA       PTSUNNY   75  50  42 NW7       29.86F
BUTTE          TSTM      64  45  50 W5        29.97R
MULLAN PASS    CLOUDY    55  48  77 VRB3      30.00S
* ESSEX        N/A       69  48  47 S2G10      N/A
* LINCOLN      N/A       72  46  40 W6G14      N/A
* LOOKOUT PASS N/A       62  51  67 W4G9       N/A
* POLSON       N/A       68  59  73 S2         N/A
* RONAN APT    CLOUDY    72  54  53 N/A        N/A
* SEELEY LAKE  N/A       69  45  42 NW6G13     N/A
* THOMP F APT  CLOUDY    72  59  64 N/A        N/A
* YAAK HILL    N/A       67  53  61 NW9        N/A
$$

MTZ008-052>055-202300-
SOUTHWEST MONTANA
CITY           SKY/WX    TMP DP  RH WIND       PRES   REMARKS
BOZEMAN        LGT RAIN  66  43  43 NE6G43    29.91R
DILLON         CLOUDY    64  48  56 S6        29.95S
W YELLOWSTONE  PTCLDY    64  45  50 NW10G18   30.05R
* THREE FORKS  CLOUDY    73  54  51 N/A        N/A
* BOULDER HILL N/A       58  50  75 S12        N/A
* RAYNOLDS PAS N/A       55  52  90 NW20G27    N/A
* WHITEHALL    N/A       71  54  55 NW8G17     N/A
* WISE RIVER   N/A       67  44  44 SE10       N/A
$$

MTZ009>010-012-014-046-048-049-054-202300-
EAST SLOPES AND CENTRAL MONTANA
CITY           SKY/WX    TMP DP  RH WIND       PRES   REMARKS
CUT BANK       TSTM      61  52  72 N/A       29.88R VSB 1 3/4
GREAT FALLS    CLOUDY    72  50  46 W8        29.82F
HELENA         CLOUDY    73  46  38 W8        29.87R
MALMSTROM AFB  CLOUDY    72  45  38 W7        29.83F
* CONRAD       CLOUDY    75  50  42 N/A        N/A
* DEARBORN     N/A       74  48  40 NE7        N/A
* EAST GLACIER N/A       66  46  49 W17        N/A
* MONARCH      N/A       63  46  54 NW11G17    N/A
* PENDROY      N/A       61  48  62 W14G20     N/A
* ROGERS PASS  N/A       70  40  34 NE7G21     N/A
* SAINT MARY   N/A       69  44  41 S7G18      N/A
* SWEET GRASS  N/A       70  51  51 N9G14      N/A
* WHITE SULPH  N/A       74  41  31 SW5G11     N/A
$$

MTZ011-013-016-021-035-040-045-047-050-051-202300-
NORTH CENTRAL MONTANA
CITY           SKY/WX    TMP DP  RH WIND       PRES   REMARKS
HAVRE          PTCLDY    82  48  31 N5        29.78S
LEWISTOWN      PTCLDY    79  45  30 VRB6      29.84F
* FORT BENTON  PTSUNNY   79  48  34 S6        29.80F
* CHESTER      N/A       67  53  61 NE15G22    N/A
* DENTON       N/A       76  48  37 S9G21      N/A
* GEYSER       N/A       64  49  58 W15G27     N/A
* JUDITH GAP   N/A       68  53  59 VRB12G19    N/A
* LOMA         N/A       79  47  32 SW5        N/A
$$

MTZ017>020-022>027-061-062-202300-
NORTHEAST MONTANA
CITY           SKY/WX    TMP DP  RH WIND       PRES   REMARKS
GLASGOW        CLOUDY    77  57  50 W6        29.76F
GLENDIVE       CLOUDY    73  59  62 N6        29.78S
JORDAN         CLOUDY    79  57  47 VRB6      29.80S
SIDNEY         CLOUDY    68  63  84 CALM      29.77R
WOLF POINT     CLOUDY    79  57  47 N8        29.74F
* BEAVER HILL  N/A       65  60  84 VRB9       N/A
* CIRCLE       N/A       72  59  64 W8         N/A
* LINDSAY DVD  N/A       74  60  62 NW13       N/A
* SACO         N/A       78  55  45 W10        N/A
$$

MTZ028>042-056>058-202300-
SOUTHCENTRAL AND SOUTHEAST MONTANA
CITY           SKY/WX    TMP DP  RH WIND       PRES   REMARKS
BAKER          CLOUDY    77  55  47 N12       29.79S
BILLINGS       PTCLDY    81  45  28 SE6       29.83F
LIVINGSTON     PTCLDY    82  36  19 SW13      29.83F
MILES CITY     CLOUDY    82  52  35 N13       29.77S
* LAUREL APT   PTCLDY    82  45  27 NE5        N/A
* ROUNDUP APT  PTSUNNY   73  55  53 N9         N/A
* ALZADA       N/A       84  48  29 NW14       N/A
* HYSHAM       N/A       81  45  28 NE3G10     N/A
* LAME DEER    N/A       74  45  36 NW11G16    N/A
* REED POINT   N/A       85  49  29 VRB2       N/A
* ROSCOE HILL  N/A       74  44  34 E11G17     N/A
$$

REGIONAL REPORTS...DAKOTAS
CITY           SKY/WX    TMP DP  RH WIND       PRES   REMARKS
WILLISTON      LGT RAIN  70  64  81 SW7       29.76R
DICKINSON      LGT RAIN  66  63  90 NE9       29.76R
BEACH          N/A       68  63  84 N9        29.79S
CROSBY         PTSUNNY   70  70 100 S6        29.74R
TIOGA          PTSUNNY   72  66  81 CALM      29.80R
WATFORD CITY   SUNNY     75  57  54 W12       29.74S
BISMARCK       CLOUDY    75  72  90 E5        29.71F
GRAND FORKS    PTCLDY    82  66  58 S13G20    29.76F HI  84
FARGO          CLOUDY    82  66  58 SE10      29.77F HI  84
BUFFALO SD     PTCLDY    81  55  41 NW24G33   29.68R HI  81
RAPID CITY     CLOUDY    81  61  51 N22       29.72S HI  82
$$

REGIONAL REPORTS...WYOMING/IDAHO/WASHINGTON
CITY           SKY/WX    TMP DP  RH WIND       PRES   REMARKS
GILLETTE       PTCLDY    79  46  31 NW13G28   29.87R
SHERIDAN       PTCLDY    81  46  29 NW12      29.86S
CODY           CLOUDY    64  52  65 W9G16     29.94R
YELLOWSTONE LA SUNNY     57  45  64 VRB3      30.12F
SALMON         PTSUNNY   61  54  78 E10       29.91R
MULLAN PASS    CLOUDY    55  48  77 VRB3      30.00S
SAND POINT     PTSUNNY   73  57  57 S9G16     29.83F
SPOKANE        PTSUNNY   75  48  39 SW9       29.83F
$$

REGIONAL REPORTS...ALBERTA
CITY           SKY/WX    TMP DP  RH WIND       PRES   REMARKS
CALGARY        LGT RAIN  54  50  86 N10       29.97R
LETHBRIDGE     PTSUNNY   63  55  75 N13       29.88R
MEDICINE HAT   PTSUNNY   70  55  59 NE9       29.81S
EDMONTON       PTSUNNY   66  46  49 NW12      29.93S
WATERTON GATE  N/A       52  46  80 W13G24     N/A
CARDSTON       N/A       61  57  87 N13G20     N/A
$$

REGIONAL REPORTS...SASKATCHEWAN
CITY           SKY/WX    TMP DP  RH WIND       PRES   REMARKS
SWIFT CURRENT  PTSUNNY   75  54  48 N8        29.77S
MOOSE JAW      CLOUDY    75  59  58 N10       29.74R
REGINA         PTSUNNY   73  63  71 NW8       29.73R
VAL MARIE      N/A       77  52  42 N8         N/A
ASSINIBOIA     N/A       77  54  45 N8G21      N/A
CORONACH       N/A       72  57  59 N3         N/A

$$



USA.gov is the U.S. government's official web portal to all federal, state and local government web resources and services.